| time (UTC) | temp C | wind direction | speed KPH | gust KPH | rain 1hr cm | rain 24hr cm | rain mn cm | humidity % | barometer mb |
| 20260509160009 | 23 | 188 | 0.0 | 4.8 | 0.00 | 0.00 | 0.00 | 92 | 1010.3 |
| 20260509154527 | 23 | 186 | 0.0 | 3.2 | 0.00 | 0.00 | 0.00 | 91 | 1010.5 |
| 20260509153018 | 23 | 186 | 0.0 | 4.8 | 0.00 | 0.00 | 0.00 | 91 | 1010.7 |
| 20260509151602 | 23 | 171 | 0.0 | 8.0 | 0.00 | 0.00 | 0.00 | 91 | 1010.5 |
| 20260509150030 | 23 | 215 | 1.6 | 9.7 | 0.00 | 0.00 | 0.00 | 91 | 1010.3 |
| 20260509144511 | 23 | 216 | 3.2 | 11.3 | 0.00 | 0.00 | 0.00 | 91 | 1010.0 |
| 20260509143053 | 23 | 176 | 3.2 | 11.3 | 0.00 | 0.00 | 0.00 | 91 | 1009.4 |
| 20260509141519 | 22 | 156 | 1.6 | 8.0 | 0.00 | 0.00 | 0.00 | 91 | 1009.3 |
| 20260509140019 | 22 | 224 | 3.2 | 12.9 | 0.00 | 0.00 | 0.00 | 91 | 1009.5 |
| 20260509134505 | 22 | 196 | 1.6 | 12.9 | 0.00 | 0.00 | 0.00 | 91 | 1009.4 |
| 20260509034535 | 22 | 130 | 1.6 | 4.8 | 0.00 | 0.97 | 0.97 | 87 | 1009.1 |
| 20260509033024 | 22 | 98 | 1.6 | 12.9 | 0.00 | 0.97 | 0.97 | 87 | 1008.7 |
| 20260509031548 | 22 | 138 | 4.8 | 14.5 | 0.00 | 0.97 | 0.97 | 87 | 1008.7 |
| 20260509030036 | 22 | 126 | 6.4 | 14.5 | 0.00 | 0.97 | 0.97 | 87 | 1008.5 |
| 20260509024513 | 23 | 134 | 4.8 | 12.9 | 0.00 | 0.97 | 0.97 | 87 | 1008.3 |
| 20260509023001 | 23 | 151 | 1.6 | 6.4 | 0.00 | 0.97 | 0.97 | 87 | 1008.5 |
| 20260509021539 | 23 | 144 | 0.0 | 4.8 | 0.00 | 0.97 | 0.97 | 86 | 1008.4 |
| 20260509014528 | 23 | 166 | 3.2 | 12.9 | 0.00 | 0.97 | 0.97 | 87 | 1008.3 |
| 20260509013016 | 23 | 147 | 6.4 | 12.9 | 0.00 | 0.97 | 0.97 | 86 | 1008.2 |
| 20260509011541 | 23 | 126 | 3.2 | 12.9 | 0.00 | 0.97 | 0.97 | 87 | 1008.2 |
| 20260509004533 | 24 | 126 | 8.0 | 12.9 | 0.00 | 0.97 | 0.97 | 87 | 1008.1 |
| 20260509003011 | 24 | 106 | 4.8 | 9.7 | 0.00 | 0.97 | 0.97 | 87 | 1008.1 |
| 20260509001548 | 24 | 110 | 6.4 | 14.5 | 0.00 | 0.97 | 0.97 | 87 | 1008.2 |
| 20260509000042 | 24 | 115 | 4.8 | 12.9 | 0.00 | 0.97 | 0.97 | 87 | 1008.2 |
| 20260508234532 | 25 | 96 | 3.2 | 14.5 | 0.00 | 0.97 | 0.97 | 87 | 1008.2 |
| 20260508233036 | 25 | 134 | 4.8 | 14.5 | 0.00 | 0.97 | 0.97 | 87 | 1008.1 |
| 20260508231607 | 25 | 63 | 11.3 | 16.1 | 0.00 | 0.97 | 0.97 | 87 | 1008.1 |
| 20260508230015 | 25 | 110 | 8.0 | 17.7 | 0.00 | 0.97 | 0.97 | 87 | 1008.4 |
| 20260508224512 | 25 | 67 | 4.8 | 8.0 | 0.00 | 0.97 | 0.97 | 87 | 1008.4 |
| 20260508223105 | 25 | 101 | 3.2 | 11.3 | 0.00 | 0.97 | 0.97 | 88 | 1008.4 |
| 20260508221535 | 25 | 91 | 1.6 | 6.4 | 0.00 | 0.97 | 0.97 | 88 | 1008.5 |
| 20260508220055 | 25 | 106 | 0.0 | 4.8 | 0.00 | 0.97 | 0.97 | 88 | 1008.7 |
| 20260508214514 | 25 | 96 | 4.8 | 12.9 | 0.00 | 0.97 | 0.97 | 88 | 1008.6 |
| 20260508213044 | 25 | 173 | 1.6 | 9.7 | 0.00 | 0.97 | 0.97 | 89 | 1008.7 |
| 20260508211540 | 24 | 101 | 0.0 | 6.4 | 0.00 | 0.97 | 0.97 | 89 | 1008.9 |
| 20260508210040 | 24 | 84 | 3.2 | 6.4 | 0.00 | 0.97 | 0.97 | 89 | 1009.2 |
| 20260508204606 | 24 | 84 | 8.0 | 11.3 | 0.00 | 0.97 | 0.97 | 89 | 1009.3 |
| 20260508203019 | 24 | 67 | 1.6 | 8.0 | 0.00 | 0.97 | 0.97 | 89 | 1009.6 |
| 20260508201508 | 24 | 94 | 4.8 | 14.5 | 0.00 | 0.97 | 0.97 | 89 | 1009.7 |
| 20260508200035 | 23 | 105 | 4.8 | 11.3 | 0.00 | 0.97 | 0.97 | 89 | 1009.9 |
| 20260508194508 | 23 | 81 | 3.2 | 14.5 | 0.00 | 0.97 | 0.97 | 89 | 1010.0 |
| 20260508193034 | 23 | 71 | 6.4 | 9.7 | 0.00 | 0.97 | 0.97 | 89 | 1010.4 |
| 20260508191551 | 22 | 70 | 4.8 | 9.7 | 0.00 | 0.97 | 0.97 | 89 | 1010.5 |
| 20260508190036 | 22 | 117 | 4.8 | 9.7 | 0.00 | 0.97 | 0.97 | 89 | 1010.9 |
| 20260508184509 | 22 | 94 | 3.2 | 8.0 | 0.00 | 0.97 | 0.97 | 89 | 1011.0 |
| 20260508183053 | 21 | 89 | 3.2 | 9.7 | 0.00 | 0.97 | 0.97 | 89 | 1011.2 |
| 20260508181525 | 21 | 60 | 3.2 | 12.9 | 0.00 | 0.97 | 0.97 | 89 | 1011.3 |
| 20260508180031 | 21 | 98 | 4.8 | 11.3 | 0.00 | 0.97 | 0.97 | 89 | 1011.5 |
| 20260508174547 | 21 | 34 | 3.2 | 9.7 | 0.00 | 0.97 | 0.97 | 89 | 1011.7 |
| 20260508173030 | 21 | 51 | 4.8 | 9.7 | 0.00 | 0.97 | 0.97 | 89 | 1012.0 |
| 20260508171603 | 20 | 47 | 6.4 | 12.9 | 0.00 | 0.97 | 0.97 | 89 | 1011.9 |
| 20260508170014 | 19 | 59 | 6.4 | 14.5 | 0.00 | 0.97 | 0.97 | 89 | 1012.1 |
| 20260508164601 | 18 | 360 | 4.8 | 9.7 | 0.00 | 0.97 | 0.97 | 89 | 1012.2 |
| 20260508163024 | 18 | 30 | 4.8 | 8.0 | 0.00 | 0.97 | 0.97 | 88 | 1012.6 |
| 20260508161521 | 18 | 40 | 0.0 | 6.4 | 0.00 | 0.97 | 0.97 | 88 | 1012.7 |